Regional Weather Roundup
Issued by NWS Newport/Morehead, NC

Current Version | Previous Version | Graphics & Text | Print | Product List | Glossary On
Versions: 1 2 3 4 5 6 7 8 9 10 11 12 13 14 15 16 17 18 19 20 21 22 23 24 25 26 27 28 29 30 31 32 33 34 35 36 37 38 39 40 41 42 43 44 45 46 47 48 49 50
000 ASUS42 KMHX 270125 RWRMHX WEATHER ROUNDUP FOR EASTERN NORTH CAROLINA NATIONAL WEATHER SERVICE NEWPORT/MOREHEAD CITY NC 900 PM EDT THU MAY 26 2016 NOTE: "FAIR" INDICATES FEW OR NO CLOUDS BELOW 12,000 FEET WITH NO SIGNIFICANT WEATHER AND/OR OBSTRUCTIONS TO VISIBILITY NCZ015>017-031-032-045>047-102-103-270200- NORTH COAST CITY SKY/WX TMP DP RH WIND PRES REMARKS EDENTON CLEAR 76 75 97 S8 30.13R ELIZABETH CITY CLEAR 75 65 70 S10 30.11R KITTY HAWK CLEAR 73 65 74 S7 30.13R MANTEO NOT AVBL $$ NCZ045>047-081-094-103-104-270200- CENTRAL COAST CITY SKY/WX TMP DP RH WIND PRES REMARKS FRISCO CLEAR 73 66 78 S7 30.15S $$ NCZ095-097-098-100-101-270200- SOUTHERN COAST CITY SKY/WX TMP DP RH WIND PRES REMARKS BEAUFORT PTCLDY 73 64 73 S8 30.14S CEDAR ISLAND NOT AVBL JACKSONVILLE CLEAR 72 64 76 S5 30.14R PINEY ISLAND NOT AVBL WILMINGTON CLEAR 73 62 68 S7 30.14R $$ NCZ011>013-027>030-043-044-078>080-089-090>093-098-270200- COASTAL PLAIN CITY SKY/WX TMP DP RH WIND PRES REMARKS AHOSKIE PTCLDY 75 64 69 S8 30.09R CLINTON CLEAR 77 66 69 S3 30.12R ELIZABETHTOWN CLEAR 75 64 67 S7 30.13R GOLDSBORO PTCLDY 79 67 68 S9 30.09R GREENVILLE PTCLDY 77 63 61 S15 30.13R HAVELOCK CLEAR 72 65 78 S6 30.15R KENANSVILLE CLEAR 75 64 68 SE3 30.13R KINSTON CLEAR 75 61 60 S9 30.13R NEW BERN CLEAR 73 63 70 S6 30.15R RICHLANDS CLEAR 72 65 78 S7 30.14R ROCKY MOUNT CLEAR 75 65 70 CALM 30.08R WASHINGTON CLEAR 74 64 69 S8 30.13R WHITEVILLE CLEAR 74 64 72 S5 30.13R $$ AMZ130-135-150-152-154-156-158-170-250-252-270-ANZ085-086-088-633-658-670-270200- MARINE OBSERVATIONS STATION/POSITION TIME TEMP WIND PRES WAVE SWELL AIR SEA DIR/SP/G HT/PER HT/PER (UTC) (F) (DEG/KT/KT) (MB) (FT/S) (FT/S) CHESAPEAKE LIGHT 0100 71 190/ 22/ 23 1019.2 64 E VA BEACH 0050 65 59 190/ 12/ 12 1019.8 2/ 8 2/ 8 DUCK 0100 1019.1 2 E DUCK 0111 65 N/A 2/ 8 OREGON INLET 0100 1020.4 13E OREGON INLT 0100 65 N/A 2/ 8 2/ 8 HATTERAS CG 0100 1020.5 DIAMOND BUOY 0050 76 74 180/ 12/ 14 1020.8 2/ 8 2/ 8 CAPE LOOKOUT 0100 74 180/ 8/ 9 1020.7 BEAUFORT LAB 0100 1020.0 30 SE NEW RVR IN 0025 75 N/A 2/ 9 27 SE WRIGHTSVLE 0108 77 74 170/ 10/ 12 1020.5 5 SE WRIGHTSVLE 0108 75 74 190/ 8/ 12 1021.5 225 S CAPE HAT 0050 76 78 70/ 14/ 16 1020.8 3/ 4 2/ 8 41 SE CHARLESTON 0050 78 78 120/ 10/ 12 1019.8 2/ 9 2/ 9 $$

USA.gov is the U.S. government's official web portal to all federal, state and local government web resources and services.